Flag for Canada Weather past 2 weeks in Gander, Newfoundland and Labrador, Canada

45 °F

Mostly cloudy.

Feels Like: 41 °F
Forecast: 37 / 56 °F
Wind: 7 mph from Southwest

Location: Gander Int. Airport

Current Time: Oct 9, 2015 at 11:59:04 PM

Latest Report: Oct 9, 2015 at 11:30 PM

Visibility: 20 mi

Pressure: 29.96 "Hg

Humidity: 71%

Dew point: 36 °F

Location of GanderLocation

Historic Weather in Gander — Graph


Gander temperature yesterday

Maximum temperature yesterday: 55 °F (at 11:30 AM)
Minimum temperature yesterday: 43 °F (at 9:30 PM)
Average temperature yesterday: 50 °F

Past Weeks' High & Low Weather Summary

High77 °F (Sep 29, 3:30 PM)100% (Oct 1, 1:30 AM)30.43 "Hg (Oct 1, 1:30 AM)
Low32 °F (Sep 26, 11:30 PM)34% (Oct 6, 1:30 PM)29.63 "Hg (Oct 8, 11:30 AM)
Average50 °F77%30.08 "Hg
* Reported Sep 24 10:30 PM — Oct 9 10:30 PM, Gander, Weather by CustomWeather, © 2015

Note: Actual official high and low records may vary slightly from our data, if they occured in-between our weather recording intervals... More about our weather records


Gander weather history for previous 24 hours

Time TempWeatherWind HumidityBarometerVisibility
10:30 PM
Fri, Oct 9
46 °FMostly cloudy.5 mph57%29.97 "Hg20 mi
9:30 PM46 °FOvercast.8 mph57%29.98 "Hg20 mi
8:30 PM45 °FPassing clouds.6 mph61%29.98 "Hg20 mi
7:30 PM45 °FMostly cloudy.2 mph61%29.98 "Hg20 mi
6:30 PM46 °FPartly sunny.5 mph57%29.97 "Hg20 mi
5:30 PM50 °FPassing clouds.6 mph50%29.97 "Hg20 mi
4:30 PM50 °FPassing clouds.8 mph47%29.98 "Hg20 mi
3:30 PM50 °FPassing clouds.12 mph50%29.98 "Hg20 mi
2:30 PM50 °FPassing clouds.13 mph50%29.98 "Hg20 mi
1:30 PM48 °FPassing clouds.13 mph54%29.99 "Hg20 mi
12:30 PM48 °FScattered clouds.13 mph54%29.99 "Hg20 mi
11:30 AM46 °FScattered clouds.13 mph53%30.00 "Hg20 mi
10:30 AM45 °FPassing clouds.12 mph66%30.00 "Hg20 mi
9:30 AM41 °FPassing clouds.12 mph81%29.99 "Hg20 mi
8:30 AM39 °FPassing clouds.13 mph81%29.98 "Hg20 mi
7:30 AM37 °FPassing clouds.10 mph87%29.96 "Hg20 mi
6:30 AM37 °FPassing clouds.12 mph87%29.94 "Hg20 mi
5:30 AM39 °FPassing clouds.13 mph81%29.92 "Hg20 mi
4:30 AM39 °FPassing clouds.10 mph81%29.90 "Hg20 mi
3:30 AM39 °FPassing clouds.9 mph81%29.90 "Hg20 mi
2:30 AM41 °FPassing clouds.12 mph76%29.88 "Hg20 mi
1:30 AM41 °FPassing clouds.13 mph81%29.87 "Hg20 mi
12:30 AM43 °FPassing clouds.14 mph71%29.85 "Hg20 mi
11:30 PM
Thu, Oct 8
43 °FPassing clouds.12 mph76%29.83 "Hg20 mi
Weather by CustomWeather, © 2015

See weather overviewHow to use our weather pages